Regional Weather Roundup
Issued by NWS

Home | Current Version | Previous Version | Text Only | Print | Product List | Glossary On
Versions: 1 2 3 4 5 6 7 8 9 10 11 12 13 14 15 16 17 18 19 20 21 22 23 24 25 26 27 28 29 30 31 32 33 34 35 36 37 38 39 40 41 42 43 44 45 46 47 48 49
396
ASUS45 KREV 040010
RWRNV
NEVADA REGIONAL WEATHER ROUNDUP
NATIONAL WEATHER SERVICE RENO NV
500 PM PDT TUE MAY 03 2016

NOTE: "FAIR" INDICATES FEW OR NO CLOUDS BELOW 12,000 FEET WITH NO
SIGNIFICANT WEATHER AND/OR OBSTRUCTIONS TO VISIBILITY.

NVZ001-003-004-040100-
WESTERN NEVADA

CITY           SKY/WX    TMP DP  RH WIND       PRES   REMARKS
RENO           CLOUDY    73  30  20 S5        30.02F
6HR MIN TEMP:  66; 6HR MAX TEMP:  77;

CARSON CITY    FAIR      72  28  20 CALM      30.04F
MINDEN         FAIR      68  37  32 W13       30.05F
SLIDE MTN        N/A     46  28  49 W6          N/A
PYRAMID LAKE     N/A     72 N/A N/A N3          N/A
FALLON         CLOUDY    76  23  14 SE9       29.99F
6HR MIN TEMP:  72; 6HR MAX TEMP:  79;

LOVELOCK       PTSUNNY   76  26  15 SE12      30.00F
6HR MIN TEMP:  72; 6HR MAX TEMP:  79;

$$

NVZ002-CAZ072-073-040100-
NORTHERN AND CENTRAL SIERRA

CITY           SKY/WX    TMP DP  RH WIND       PRES   REMARKS
S. LAKE TAHOE  LGT RAIN  54  40  59 CALM      30.13F
6HR MIN TEMP:  53; 6HR MAX TEMP:  58; 6HR PCP: TRACE;

TRUCKEE        CLOUDY    54  39  58 W12G18    30.14S
                   6HR MAX TEMP:  63;

SQUAW VLY 8000   N/A     43  36  75 W12         N/A
SUSANVILLE     PTSUNNY   61  48  63 S8        30.07S
BLUE CANYON    CLOUDY    55  41  59 VRB3      30.14F
MAMMOTH LAKES  FAIR      61  21  22 E13G18    30.15F
6HR MIN TEMP:  58; 6HR MAX TEMP:  65;

BRIDGEPORT     FAIR      61  29  29 SW8       30.11F
$$

NVZ030-031-036-040100-
NORTHERN NEVADA

CITY           SKY/WX    TMP DP  RH WIND       PRES   REMARKS
ELKO           MOSUNNY   71  31  22 VRB6      30.12F
6HR MIN TEMP:  63; 6HR MAX TEMP:  72;

WINNEMUCCA     MOSUNNY   73  28  18 SE6       30.05F
6HR MIN TEMP:  69; 6HR MAX TEMP:  75;

WENDOVER       SUNNY     70  27  19 SE6       30.16F
$$

NVZ035-037-040100-
CENTRAL NEVADA

CITY           SKY/WX    TMP DP  RH WIND       PRES   REMARKS
ELY            SUNNY     65  24  21 VRB6      30.17F
6HR MIN TEMP:  58; 6HR MAX TEMP:  67;

EUREKA           N/A     68  27  21 E12G22    30.14F
6HR MIN TEMP:  60; 6HR MAX TEMP:  69;

$$

NVZ013-014-040100-
SOUTH CENTRAL NEVADA

CITY           SKY/WX    TMP DP  RH WIND       PRES   REMARKS
TONOPAH        MOSUNNY   70  27  20 S13       30.11F
6HR MIN TEMP:  64; 6HR MAX TEMP:  73;

$$

NVZ017-020-022-040100-
SOUTHERN NEVADA

CITY           SKY/WX    TMP DP  RH WIND       PRES   REMARKS
LAS VEGAS      MOSUNNY   84  27  12 CALM      29.93F
6HR MIN TEMP:  76; 6HR MAX TEMP:  85;

N. LAS VEGAS   SUNNY     82  29  14 CALM      29.96F
6HR MIN TEMP:  76; 6HR MAX TEMP:  84;

NELLIS AFB     SUNNY     84  31  14 VRB3      29.94F
6HR MIN TEMP:  77; 6HR MAX TEMP:  84;

HENDERSON      SUNNY     82  34  17 VRB7      29.99F
6HR MIN TEMP:  74; 6HR MAX TEMP:  83;

MERCURY        SUNNY     80  28  15 E13G20    30.00F
6HR MIN TEMP:  73; 6HR MAX TEMP:  81;

$$




USA.gov is the U.S. government's official web portal to all federal, state and local government web resources and services.